Location: ????????
(60.5616°N, 46.8254°E)
Time: 07:42:48
(UTC+00:00)

MetOp-B - Pass Details

Date: 18 February 2020
Orbit: 820 x 821 km, 98.7° (Epoch: 30 March)

Event Time Altitude Azimuth Distance (km) Brightness Sun altitude
Exits shadow 16:29:39 40° 98° (E) 1,193 4.5 -20.3°
Maximum altitude 16:30:55 48° 59° (ENE) 1,065 4.4 -20.4°
Drops below altitude 10° 16:36:05 10° 347° (NNW) 2,434 6.9 -21.0°
Sets 16:38:30 0° 342° (NNW) 3,371 7.8 -21.3°
